Location: �chenoz-la-M�line
(47.6009°N, 6.1354°E)
Time: 03:58:14
(UTC+00:00)

CZ-2D R/B - Pass Details

Date: 27 January 2021
Orbit: 520 x 538 km, 97.4° (Epoch: 27 February)

Event Time Altitude Azimuth Distance (km) Brightness Sun altitude
Rises 06:25:31 0° 17° (NNE) 2,663 6.8 -7.4°
Reaches altitude 10° 06:27:41 10° 23° (NNE) 1,768 6.0 -7.1°
Maximum altitude 06:31:23 49° 99° (E) 683 4.4 -6.5°
Drops below altitude 10° 06:35:04 10° 175° (S) 1,752 6.3 -5.9°
Sets 06:37:12 0° 181° (S) 2,635 7.1 -5.6°
